Temperature
10 10 10 10 10 10 10 10 10 10 10 10 10 10 10 10 10 10 10 10 10 10 10 11 10 11 11 10 10 10 10 10 10 10 9 9 9 9 9 9 9 9 9
10 10 10 10 10 10 10 10 9 9 10 10 9 9 9 9 9 10 10 10 10 10 10 10 10 10 10 10 10 10 9 9 9 9 9 8 8 8 8 8 8 8 8
10 10 10 10 10 10 9 9 9 9 9 9 9 9 9 9 9 9 9 9 9 9 9 9 9 9 9 9 9 9 9 9 9 8 8 8 8 7 8 8 8 7 7
9 9 9 9 9 9 9 9 9 9 9 9 9 9 9 9 9 9 9 9 9 9 9 9 9 9 9 9 9 8 8 8 8 8 8 7 7 7 6 7 7 7 7
9 9 9 9 9 9 9 9 9 8 8 8 8 8 8 8 8 8 8 8 8 8 8 8 8 8 8 8 8 8 8 8 8 7 7 7 7 7 6 6 6 7 6
9 9 9 9 9 8 8 8 8 8 8 8 8 8 8 8 8 8 8 8 8 8 8 8 8 8 8 8 8 7 7 7 7 7 7 6 6 6 6 5 6 6 6
9 8 8 8 8 8 8 8 8 8 8 8 8 8 7 7 7 7 7 7 7 7 7 7 7 7 7 7 7 7 7 7 7 6 6 6 6 6 5 5 5 5 5
8 8 8 8 8 8 8 8 8 8 7 7 7 7 7 7 7 7 7 7 7 7 7 7 7 7 7 6 6 6 6 6 6 6 6 5 5 5 5 4 4 4 4
8 8 8 8 8 8 8 8 7 7 7 7 7 7 7 7 6 6 6 6 6 6 6 6 6 6 6 6 6 6 6 6 6 5 5 5 5 5 5 4 4 3 3
8 8 8 8 8 8 7 7 7 7 7 7 7 7 6 6 6 6 6 6 6 6 6 6 6 6 6 6 5 5 5 5 5 5 5 5 5 4 4 4 4 3 3
8 8 8 7 7 7 7 7 7 7 7 7 6 6 6 6 6 6 6 5 5 5 5 5 5 5 5 5 5 5 5 5 5 5 4 4 4 4 4 3 3 3 2
8 8 7 7 7 7 7 7 7 6 6 6 6 6 6 5 5 5 5 5 5 5 5 5 5 5 5 5 5 5 4 4 4 4 4 4 3 3 3 3 3 2 2
7 7 7 7 7 7 7 6 6 6 6 6 6 5 5 5 5 5 5 5 5 5 5 4 4 4 4 4 4 4 4 4 4 4 3 3 3 3 3 2 2 2 2
7 7 7 7 6 6 6 6 6 6 5 5 5 5 5 5 5 5 4 4 4 4 4 4 4 4 4 4 4 4 4 3 3 3 3 3 2 2 2 2 2 1 1
7 7 6 6 6 6 6 5 5 5 5 5 5 5 5 4 4 4 4 4 4 4 4 4 4 4 4 4 3 3 3 3 3 3 2 2 2 2 1 1 1 1 1
6 6 6 6 6 5 5 5 5 5 5 4 4 4 4 4 4 4 4 4 3 3 3 3 3 3 3 3 3 3 3 2 2 2 2 2 1 1 1 1 1 0 0
6 6 5 5 5 5 5 5 4 4 4 4 4 4 4 4 4 3 3 3 3 3 3 3 3 3 3 3 2 2 2 2 2 2 1 1 1 1 1 0 0 -0 -0
5 5 5 5 5 5 4 4 4 4 4 3 3 3 3 3 3 3 3 3 2 2 2 2 2 2 2 2 2 2 2 2 1 1 1 1 0 0 -0 -0 -0 -1 -1
5 5 5 4 4 4 4 3 3 3 3 3 3 3 3 3 2 2 2 2 2 2 2 2 2 2 2 2 1 1 1 1 1 1 1 0 0 -0 -1 -1 -1 -1 -1
4 4 4 4 3 3 3 3 3 3 3 2 2 2 2 2 2 2 2 2 2 1 1 1 1 1 1 1 1 1 1 1 1 1 0 -0 -0 -1 -1 -1 -1 -1 -1
3 3 3 3 3 3 2 2 2 2 2 2 2 2 2 2 1 1 1 1 1 1 1 1 1 1 1 1 1 0 0 0 -0 -0 -0 -0 -1 -1 -1 -1 -1 -1 -2
3 3 3 2 2 2 2 2 2 2 1 1 1 1 1 1 1 1 1 1 0 0 0 0 0 0 0 0 0 -0 -0 -1 -1 -1 -1 -1 -1 -1 -1 -2 -2 -2 -2
2 2 2 2 2 2 2 2 1 1 1 1 1 1 1 1 1 0 0 0 -0 -0 -0 -0 -0 -0 -0 -0 -1 -1 -1 -1 -1 -1 -1 -1 -2 -2 -2 -2 -2 -2 -3
2 2 2 1 1 1 1 1 1 1 1 1 1 0 0 0 0 -0 -0 -0 -1 -1 -1 -1 -1 -1 -1 -1 -1 -1 -1 -2 -2 -2 -2 -2 -2 -2 -2 -2 -2 -3 -3
1 1 1 1 1 1 1 1 0 0 0 0 0 0 -0 -0 -0 -0 -1 -1 -1 -1 -1 -1 -1 -1 -1 -1 -2 -2 -2 -2 -2 -2 -2 -2 -2 -3 -3 -3 -3 -3 -3
1 1 0 0 0 0 0 0 0 0 0 -0 -0 -0 -0 -1 -1 -1 -1 -1 -1 -1 -1 -2 -2 -2 -2 -2 -2 -2 -2 -2 -3 -3 -3 -3 -3 -3 -3 -3 -3 -3 -3
Wind_Speed
3 3 4 5 5 4 4 4 5 4 4 3 3 3 2 2 2 2 3 3 3 3 3 2 2 2 1 1 1 1 1 2 2 2 2 3 2 1 1 1 2 2 3
2 4 4 4 4 4 4 4 4 4 4 3 3 2 2 2 1 1 2 3 3 2 2 2 1 1 1 2 1 1 1 1 2 1 1 1 2 2 2 1 1 1 2
6 5 5 5 4 4 5 4 4 4 4 4 3 3 3 2 2 1 1 2 2 2 2 2 1 1 1 1 0 1 2 1 0 1 2 1 2 2 2 1 1 1 1
5 5 6 5 5 4 4 4 4 4 3 4 4 4 3 2 2 1 1 1 2 2 2 2 2 2 1 1 0 0 1 2 1 0 0 1 2 1 2 2 2 2 2
5 5 6 6 5 4 4 4 4 3 3 4 4 4 3 2 1 1 1 1 1 1 1 1 2 2 1 1 1 1 0 1 2 2 1 1 0 1 2 3 3 3 3
3 3 4 4 3 3 3 3 4 3 3 3 3 4 4 3 2 1 1 1 0 0 0 1 1 1 1 0 0 0 0 1 1 1 1 2 1 1 2 3 4 4 4
4 4 3 4 4 5 5 4 4 3 2 3 3 3 3 3 3 3 3 2 1 1 2 1 1 1 1 1 1 1 1 1 2 2 2 2 2 2 2 2 3 4 3
3 4 4 4 5 5 5 5 4 3 3 3 3 3 3 2 2 3 3 2 2 2 2 2 2 2 1 1 1 1 1 1 2 2 2 2 2 2 2 2 2 3 3
3 3 3 4 4 5 5 5 5 3 3 3 3 3 3 3 3 2 2 2 2 2 2 2 2 2 2 2 1 1 2 2 2 3 3 2 2 2 2 2 2 3 5
2 2 2 3 3 4 4 4 4 4 4 3 3 2 2 3 3 2 3 2 2 2 2 2 2 2 2 2 2 2 3 3 3 3 3 3 3 2 2 2 2 3 4
2 2 2 2 2 2 3 4 4 4 4 4 3 3 3 3 3 3 3 3 2 2 3 3 2 3 3 3 3 4 3 4 4 3 3 4 3 3 3 2 2 3 3
2 2 2 2 2 2 3 4 4 4 5 4 4 4 3 3 3 3 3 3 3 3 3 3 3 3 3 3 4 4 4 5 5 4 4 5 3 4 3 3 3 4 4
2 2 2 3 3 3 3 3 4 5 4 4 4 3 3 3 4 4 3 3 3 3 3 3 3 4 4 4 4 5 5 5 5 5 5 5 4 5 4 4 4 4 4
4 3 3 4 4 4 4 4 4 4 4 4 4 4 4 4 4 4 3 3 3 3 3 3 4 4 4 4 4 4 5 5 5 5 5 5 6 6 6 5 5 4 4
4 4 4 4 4 4 4 4 4 4 4 5 5 5 4 4 3 3 3 3 3 4 3 3 4 4 4 4 5 5 5 5 5 5 5 5 6 7 6 5 5 5 4
4 4 4 4 5 5 4 4 4 4 4 5 5 4 4 3 3 4 3 3 3 3 3 3 4 4 5 7 8 6 5 5 5 5 5 5 6 8 9 10 9 8 6
4 4 5 5 5 5 4 4 4 4 4 4 4 4 4 4 4 3 3 4 3 3 3 4 4 5 7 9 9 9 5 5 5 5 5 5 5 6 5 8 10 10 11
5 5 4 4 3 3 3 3 2 3 4 4 4 4 4 4 3 3 4 4 3 3 4 5 5 5 7 9 9 9 5 5 5 6 6 6 6 6 5 5 6 6 7
5 5 4 4 3 3 2 2 2 3 3 4 4 4 4 4 4 4 5 4 3 4 4 4 5 5 7 8 9 8 4 4 5 5 5 6 6 9 9 6 6 7 7
3 3 2 2 2 2 2 2 3 3 5 5 5 5 5 5 5 5 5 3 4 5 4 4 4 5 6 8 9 7 3 4 4 4 5 8 8 10 10 6 6 8 7
4 3 2 3 3 2 1 2 3 5 6 5 4 4 4 5 5 4 4 3 4 4 4 5 5 5 6 8 9 8 4 4 5 4 4 5 10 11 11 9 7 9 7
3 3 3 3 3 2 2 4 5 5 4 3 4 4 4 4 3 4 4 3 3 4 4 4 5 4 5 6 7 9 8 6 5 5 5 5 9 10 11 9 9 11 8
3 3 3 4 4 3 3 5 5 4 3 3 4 4 4 3 3 4 4 3 3 3 4 4 5 5 4 5 8 9 9 9 6 5 7 8 9 8 7 9 9 7 4
4 3 3 4 5 5 4 5 5 4 3 4 4 4 3 3 3 3 3 4 4 4 4 4 5 5 4 4 4 4 5 6 6 5 6 8 8 6 6 6 5 4 4
4 3 4 5 6 6 5 4 4 3 4 4 4 4 4 4 3 4 4 5 5 6 6 5 5 5 6 6 7 5 4 4 5 4 2 2 2 3 3 3 3 3 3
4 4 4 5 6 5 6 5 4 4 4 4 4 4 3 3 3 3 4 5 6 8 9 8 7 7 8 10 10 9 9 9 8 5 3 3 4 4 4 4 4 3 3
Wind_Direction
239 170 164 150 140 137 141 139 136 132 121 114 115 117 108 96 88 87 86 80 73 77 83 73 46 55 70 52 64 77 56 29 19 41 11 353 5 29 46 78 75 58 50
202 172 167 152 151 155 150 140 142 139 134 132 128 133 134 124 116 101 80 83 76 67 83 81 57 54 71 43 58 94 103 35 41 75 84 351 335 344 352 11 78 53 29
190 180 170 172 165 167 169 161 151 141 138 131 113 102 81 72 72 75 62 64 77 69 84 95 94 78 96 83 45 125 141 173 350 83 138 160 238 295 309 307 339 347 339
186 182 176 176 181 185 169 154 149 142 144 138 139 142 149 161 195 177 154 91 82 85 82 85 103 100 87 89 13 85 171 164 200 269 321 200 180 188 289 303 311 314 298
185 187 186 180 183 174 162 154 141 137 136 140 149 148 149 160 145 122 128 107 76 91 99 104 106 95 80 81 39 31 116 169 190 199 211 260 276 195 206 268 294 302 276
182 183 180 163 159 148 146 141 137 139 145 138 137 149 158 157 149 164 188 197 187 91 123 124 128 137 140 190 211 213 161 185 190 201 194 197 207 220 209 244 278 283 277
172 169 165 167 165 163 163 158 154 157 160 148 149 159 168 170 185 194 197 197 203 218 227 204 193 192 200 204 190 188 240 208 199 208 217 216 229 223 224 241 272 284 289
176 180 182 179 178 178 173 166 169 169 167 167 174 170 171 180 196 202 198 196 209 225 214 203 208 212 212 216 191 209 241 220 216 228 226 229 243 233 225 225 253 288 291
188 192 189 182 185 183 182 177 176 180 184 183 177 181 178 182 196 199 194 199 211 220 200 193 212 219 214 210 204 223 236 216 224 229 231 240 249 242 237 222 218 235 275
213 202 201 198 192 191 189 177 183 196 204 194 193 196 194 199 197 187 197 207 220 226 218 219 225 235 232 219 215 227 233 220 234 229 225 241 247 245 241 233 224 218 240
214 209 206 204 185 178 185 186 192 200 203 200 200 198 203 206 201 202 213 215 223 222 223 227 228 233 238 238 228 233 230 228 242 244 235 242 242 239 242 237 230 231 229
214 208 197 179 183 201 205 201 200 202 205 200 195 201 206 205 208 217 223 219 221 227 228 228 229 237 240 240 237 240 239 229 237 242 240 246 246 241 241 235 237 241 237
224 213 201 201 209 219 223 221 213 211 209 197 193 201 210 213 220 226 227 222 223 229 234 226 230 240 244 245 243 238 239 234 237 236 237 244 238 246 249 242 243 246 255
221 215 221 225 223 224 225 229 230 216 205 197 197 209 222 224 229 233 233 231 228 230 237 237 236 240 246 249 247 244 242 241 242 240 239 241 235 238 241 247 244 247 253
238 229 227 231 227 224 223 224 227 218 204 199 207 221 226 224 229 238 240 240 238 239 237 242 248 250 250 249 243 245 238 237 245 247 244 244 246 249 250 254 244 239 248
253 248 244 239 232 228 228 229 230 222 203 204 217 224 220 222 230 237 238 240 248 249 244 246 251 260 264 265 260 255 237 234 239 251 254 254 255 260 265 266 261 250 246
258 256 253 247 241 238 230 231 234 221 206 216 224 226 223 230 240 241 240 241 246 250 254 255 252 260 267 270 269 261 243 234 238 241 248 264 266 268 262 268 269 265 260
266 265 260 262 261 247 240 238 234 214 212 223 230 230 225 235 244 243 243 248 249 252 255 257 254 258 269 274 272 266 250 239 242 240 239 248 258 260 263 260 263 263 259
263 262 255 256 254 251 241 235 241 232 227 232 236 236 228 233 237 243 249 249 249 255 255 255 251 256 272 276 275 270 247 246 250 250 247 249 254 265 270 266 264 271 270
282 282 282 282 266 265 235 229 244 239 242 242 241 242 233 229 235 242 249 249 243 249 257 262 256 254 266 276 277 269 246 248 258 261 258 261 263 269 273 264 257 264 267
299 298 291 282 272 273 251 250 254 252 252 249 247 246 239 234 238 244 247 248 249 256 259 265 269 263 266 274 272 268 250 243 253 262 265 263 270 273 274 270 257 261 268
310 303 293 289 283 257 240 254 259 261 259 250 246 245 245 243 241 235 248 248 242 251 260 268 279 274 274 273 270 268 265 259 250 259 263 267 276 277 279 276 266 267 270
292 293 275 281 283 265 241 251 264 263 249 244 247 249 251 246 234 230 240 249 239 241 256 261 272 280 279 275 273 274 275 271 264 260 265 273 278 282 283 278 269 267 251
289 285 279 283 287 282 269 257 264 256 239 243 249 247 246 254 247 240 235 237 241 246 253 258 265 275 280 274 267 263 271 272 274 271 269 274 279 282 284 287 280 260 241
285 277 275 277 282 286 283 276 263 245 243 246 247 247 245 249 255 253 242 242 241 237 245 250 251 261 273 272 272 273 267 261 262 276 271 266 279 282 284 287 281 267 252
288 291 285 281 283 284 283 280 267 242 239 249 250 246 245 246 247 255 274 263 255 262 258 257 259 263 268 283 280 276 276 276 274 273 263 261 260 263 268 275 276 267 254
Height
1492 1493 1493 1494 1495 1496 1497 1498 1499 1500 1501 1502 1503 1505 1506 1507 1508 1509 1510 1511 1511 1512 1512 1512 1512 1513 1513 1513 1513 1513 1512 1512 1513 1513 1512 1513 1513 1512 1512 1512 1512 1512 1511
1491 1492 1492 1492 1494 1495 1496 1497 1498 1498 1499 1500 1502 1503 1504 1505 1506 1507 1507 1508 1509 1510 1510 1510 1510 1510 1510 1510 1510 1510 1510 1510 1510 1511 1510 1510 1511 1510 1510 1510 1509 1509 1509
1488 1489 1490 1491 1493 1494 1495 1495 1496 1497 1498 1499 1500 1501 1502 1503 1504 1504 1505 1506 1506 1507 1507 1508 1508 1508 1508 1508 1508 1508 1507 1507 1508 1509 1509 1508 1507 1507 1506 1506 1506 1506 1506
1487 1488 1488 1489 1490 1492 1494 1495 1495 1496 1497 1498 1499 1499 1500 1501 1501 1502 1503 1503 1504 1505 1505 1505 1506 1505 1505 1505 1505 1505 1505 1505 1505 1505 1506 1506 1505 1505 1503 1503 1503 1503 1503
1485 1486 1486 1488 1490 1491 1492 1494 1494 1495 1496 1496 1497 1498 1499 1499 1500 1500 1501 1501 1502 1502 1502 1503 1503 1503 1503 1502 1503 1503 1503 1502 1502 1502 1503 1502 1502 1502 1501 1499 1499 1499 1499
1484 1485 1486 1487 1489 1490 1491 1492 1493 1494 1495 1495 1496 1496 1497 1497 1498 1498 1499 1499 1499 1500 1500 1500 1500 1500 1500 1500 1500 1500 1500 1500 1500 1499 1499 1499 1499 1498 1497 1496 1494 1494 1494
1483 1484 1485 1486 1487 1488 1490 1491 1492 1492 1493 1493 1494 1495 1496 1496 1496 1496 1497 1496 1496 1497 1497 1498 1498 1498 1497 1497 1497 1497 1497 1497 1497 1496 1496 1496 1495 1495 1495 1493 1491 1490 1489
1482 1483 1483 1484 1485 1487 1488 1489 1490 1490 1491 1492 1492 1493 1494 1494 1494 1494 1494 1494 1494 1494 1495 1495 1495 1495 1494 1494 1494 1493 1493 1493 1493 1493 1493 1492 1492 1492 1491 1490 1489 1486 1485
1482 1482 1482 1483 1484 1485 1486 1487 1488 1489 1490 1490 1491 1491 1491 1492 1492 1492 1492 1492 1492 1492 1492 1492 1492 1492 1491 1491 1490 1490 1490 1490 1489 1489 1489 1489 1488 1488 1487 1487 1486 1486 1482
1482 1482 1482 1482 1483 1484 1485 1486 1487 1487 1488 1488 1489 1489 1489 1489 1489 1489 1489 1489 1489 1489 1489 1489 1489 1488 1488 1488 1487 1487 1487 1486 1486 1485 1485 1485 1484 1484 1483 1483 1482 1481 1480
1481 1481 1481 1482 1482 1483 1484 1484 1485 1486 1486 1486 1486 1486 1486 1487 1486 1486 1486 1486 1486 1486 1486 1485 1485 1485 1485 1484 1483 1483 1482 1482 1481 1481 1481 1480 1480 1479 1478 1478 1477 1476 1475
1480 1480 1480 1480 1481 1481 1481 1482 1482 1483 1483 1484 1484 1484 1484 1483 1483 1483 1483 1482 1482 1482 1482 1482 1481 1481 1481 1480 1480 1479 1478 1478 1477 1477 1476 1476 1475 1474 1474 1473 1472 1471 1471
1479 1479 1479 1479 1479 1479 1479 1479 1480 1480 1480 1480 1480 1480 1480 1480 1480 1479 1479 1478 1478 1478 1478 1478 1477 1477 1477 1476 1475 1475 1474 1473 1473 1472 1471 1471 1470 1469 1468 1468 1467 1466 1466
1477 1476 1476 1476 1477 1477 1477 1476 1477 1477 1477 1477 1477 1476 1476 1476 1476 1475 1475 1474 1474 1474 1474 1473 1473 1473 1472 1472 1471 1470 1469 1468 1468 1467 1467 1466 1465 1464 1463 1463 1462 1461 1460
1474 1474 1473 1473 1473 1473 1473 1473 1473 1473 1473 1473 1473 1472 1472 1472 1472 1471 1471 1470 1470 1470 1470 1469 1469 1468 1468 1467 1466 1465 1464 1463 1463 1462 1461 1460 1459 1459 1458 1457 1457 1456 1455
1471 1471 1470 1470 1470 1470 1470 1470 1469 1469 1469 1469 1469 1468 1468 1468 1468 1467 1467 1466 1466 1466 1465 1465 1465 1464 1463 1462 1461 1461 1459 1458 1457 1457 1456 1455 1454 1453 1453 1452 1452 1451 1450
1468 1468 1467 1467 1466 1466 1466 1466 1466 1465 1465 1465 1465 1465 1464 1464 1463 1463 1463 1462 1462 1461 1461 1460 1460 1459 1459 1458 1457 1456 1454 1453 1452 1451 1450 1449 1449 1448 1447 1446 1446 1445 1444
1466 1465 1464 1464 1463 1463 1463 1463 1462 1462 1461 1461 1461 1461 1460 1460 1459 1459 1458 1458 1458 1457 1456 1456 1455 1455 1454 1453 1452 1451 1449 1448 1447 1446 1445 1444 1443 1442 1442 1441 1439 1438 1438
1463 1462 1461 1461 1460 1460 1459 1459 1458 1458 1457 1457 1457 1456 1456 1455 1455 1455 1454 1453 1453 1452 1452 1451 1450 1449 1449 1448 1447 1446 1444 1443 1442 1441 1440 1439 1438 1437 1436 1435 1434 1432 1432
1460 1459 1458 1457 1456 1456 1455 1454 1454 1453 1453 1453 1452 1452 1452 1451 1451 1450 1450 1449 1448 1448 1447 1446 1445 1444 1443 1443 1441 1440 1439 1437 1436 1436 1435 1434 1433 1432 1431 1430 1428 1427 1426
1457 1456 1455 1454 1453 1452 1451 1450 1450 1449 1449 1448 1448 1447 1447 1447 1446 1445 1445 1444 1444 1443 1442 1441 1440 1440 1439 1437 1436 1435 1434 1433 1431 1430 1429 1429 1428 1427 1425 1424 1423 1421 1421
1453 1452 1451 1450 1449 1448 1447 1446 1445 1445 1444 1444 1443 1442 1442 1442 1441 1441 1440 1440 1439 1438 1437 1436 1435 1434 1434 1433 1431 1430 1429 1428 1427 1425 1425 1424 1423 1421 1420 1418 1417 1416 1415
1450 1449 1448 1446 1445 1444 1443 1442 1441 1441 1440 1439 1438 1438 1437 1437 1437 1436 1435 1435 1434 1433 1432 1431 1430 1429 1428 1428 1427 1426 1425 1424 1422 1421 1420 1419 1418 1416 1414 1413 1412 1411 1410
1447 1445 1444 1442 1441 1440 1439 1438 1437 1436 1435 1434 1434 1433 1433 1432 1432 1431 1431 1430 1429 1428 1427 1426 1425 1424 1423 1423 1422 1421 1420 1419 1418 1416 1415 1414 1412 1411 1409 1408 1407 1406 1405
1443 1442 1440 1438 1437 1436 1435 1434 1433 1432 1431 1430 1430 1429 1429 1428 1427 1427 1426 1425 1425 1424 1423 1422 1421 1420 1418 1418 1418 1417 1415 1414 1413 1412 1410 1408 1407 1406 1404 1403 1402 1402 1401
1439 1438 1436 1434 1433 1432 1430 1429 1428 1427 1426 1425 1425 1425 1424 1424 1423 1422 1421 1420 1420 1419 1418 1418 1417 1415 1415 1414 1412 1412 1411 1409 1408 1407 1405 1403 1402 1401 1400 1399 1398 1397 1396